Location: Dobrzeń Wielki
(50.7693°N, 17.8414°E)
Time: 13:27:51
(UTC+01:00)

ISS - Pass Details

Date: 23 January 2019
Orbit: 403 x 411 km, 51.6° (Epoch: 21 February)

Event Time Altitude Azimuth Distance (km) Brightness Sun altitude
Rises 18:34:35 0° 215° (SW) 2,327 0.6 -20.2°
Reaches altitude 10° 18:36:54 10° 200° (SSW) 1,472 -0.7 -20.6°
Enters shadow 18:38:21 19° 179° (S) 1,057 -1.7 -20.8°
